Location: L�beck
(53.8752°N, 10.6787°E)
Time: 22:38:06
(UTC+02:00)

ISS - Visible Passes

Search period start: 25 September 2020 00:00
Search period end: 05 October 2020 00:00
Orbit: 419 x 420 km, 51.6° (Epoch: 26 September)

Date Brightness Start Highest point End Pass type
(mag) Time Alt. Az. Time Alt. Az. Time Alt. Az.
25 Sep -3.6 20:58:15 10° W 21:01:36 60° S 21:02:08 50° SE visible
25 Sep -0.5 22:35:01 10° W 22:35:06 11° W 22:35:06 11° W visible
26 Sep -3.5 20:10:55 10° WSW 20:14:14 58° S 20:16:31 19° E visible
26 Sep -2.0 21:47:37 10° W 21:49:28 28° WSW 21:49:28 28° WSW visible
27 Sep -3.5 21:00:13 10° W 21:03:31 52° S 21:03:50 50° SSE visible
28 Sep -3.5 20:12:50 10° W 20:16:10 57° S 20:18:11 21° ESE visible
28 Sep -1.5 21:49:40 10° W 21:51:09 20° WSW 21:51:09 20° WSW visible
29 Sep -2.8 21:02:12 10° W 21:05:21 36° SSW 21:05:30 36° SSW visible
30 Sep -3.0 20:14:45 10° W 20:18:01 44° SSW 20:19:53 21° SE visible
30 Sep -0.9 21:52:02 10° WSW 21:52:51 13° WSW 21:52:51 13° WSW visible
01 Oct -3.2 19:27:20 10° W 19:30:38 52° S 19:33:55 10° ESE visible
01 Oct -1.9 21:04:19 10° W 21:07:01 22° SSW 21:07:15 22° SSW visible
02 Oct -2.2 20:16:45 10° W 20:19:42 29° SSW 20:21:42 16° SSE visible
03 Oct -2.5 19:29:13 10° W 19:32:22 36° SSW 19:35:30 10° SE visible
03 Oct -1.0 21:07:09 10° WSW 21:08:29 12° SW 21:09:10 11° SSW visible
04 Oct -1.3 20:19:01 10° WSW 20:21:15 17° SW 20:23:27 10° S visible
